Weather History for EGXT - August, 2013

Change the Weather History Date:

Saturday, August 24, 2013

  Actual Average Record
Temperature  
Mean Temperature 62 °F -  
Max Temperature 68 °F 63 °F 78 °F (2001)
Min Temperature 57 °F 51 °F 43 °F (2014)
Degree Days  
Heating Degree Days 2    
Growing Degree Days 12 (Base 50)    
Moisture  
Dew Point 59 °F    
Average Humidity 88    
Maximum Humidity 94    
Minimum Humidity 77    
Precipitation  
Precipitation 0.28 in - - ()
Sea Level Pressure  
Sea Level Pressure 29.86 in    
Wind  
Wind Speed 7 mph ()    
Max Wind Speed 15 mph    
Max Gust Speed -    
Visibility 5.2 miles    
Events Rain    
Averages and records for this station are not official NWS values.
T = Trace of Precipitation, MM = Missing Value Source: Averaged Metar Reports

Daily Weather History Graph

Daily Weather History Graph

Search for Another Location

Airport or City:

Trip Planner

Search our weather history database for the weather conditions in past years. The results will help you decide how hot, cold, wet, or windy it might be!

Date:

Astronomy

Aug. 24, 2013 Rise Set
Actual Time 5:59 AM BST 8:07 PM BST
Civil Twilight 5:22 AM BST 8:44 PM BST
Nautical Twilight 4:35 AM BST 9:31 PM BST
Astronomical Twilight 3:41 AM BST 10:24 PM BST
Moon 9:12 PM BST (8/24) 10:21 AM BST (8/24)
Length of Visible Light 15h 22m
Length of Day
14h 08m
Waning Gibbous, 86% of the Moon is Illuminated
Aug 24
Waning Gibbous
Aug 28
Last Quarter
Sep 5
New
Sep 12
First Quarter
Sep 19
Full

Hourly Weather History & Observations

Time (BST) Temp. Dew Point Humidity Pressure Visibility Wind Dir Wind Speed Gust Speed Precip Events Conditions
12:50 AM 64.4 °F 57.2 °F 77% 29.89 in 3.7 mi East 8.1 mph - N/A   Haze
1:50 AM 64.4 °F 59.0 °F 83% 29.86 in 3.1 mi NE 5.8 mph - N/A Rain Rain Showers
2:50 AM 62.6 °F 59.0 °F 88% 29.83 in 1.7 mi ENE 9.2 mph - N/A Rain Light Rain Showers
3:50 AM 62 °F 59 °F 88% 29.84 in 2 mi NNE 6.9 mph - - Rain Light Rain Showers
3:50 AM 62.6 °F 59.0 °F 88% 29.83 in 1.7 mi NNE 6.9 mph - N/A Rain Light Rain Showers
4:50 AM 60.8 °F 59.0 °F 94% 29.83 in 1.7 mi North 4.6 mph - N/A   Haze
5:50 AM 60.8 °F 59.0 °F 94% 29.83 in 5.6 mi NNE 6.9 mph - N/A   Haze
6:50 AM 61 °F 59 °F 90% 29.85 in 8 mi North 6.9 mph - -  
6:50 AM 60.8 °F 59.0 °F 94% 29.83 in 6.2 mi North 6.9 mph - N/A   Partly Cloudy
7:50 AM 62.6 °F 59.0 °F 88% 29.86 in 6.2 mi North 10.4 mph - N/A   Mostly Cloudy
8:50 AM 62.6 °F 59.0 °F 88% 29.86 in 6.2 mi NNW 4.6 mph - N/A   Unknown
9:50 AM 62 °F 60 °F 93% 29.86 in 8 mi NW 6.9 mph - - Rain Light Drizzle
9:50 AM 62.6 °F 60.8 °F 94% 29.86 in 6.2 mi NW 6.9 mph - N/A   Light Drizzle
10:50 AM 64.4 °F 60.8 °F 88% 29.86 in 6.2 mi North 5.8 mph - N/A   Unknown
11:50 AM 66.2 °F 59.0 °F 78% 29.86 in 6.2 mi North 8.1 mph - N/A   Scattered Clouds
12:50 PM 64 °F 61 °F 87% 29.87 in 8 mi NNW 5.8 mph - - Rain Light Rain Showers
12:50 PM 64.4 °F 60.8 °F 88% 29.86 in 6.2 mi NNW 5.8 mph - N/A Rain Light Rain Showers
1:50 PM 68.0 °F 60.8 °F 78% 29.86 in 6.2 mi NW 8.1 mph - N/A   Scattered Clouds
2:50 PM 66.2 °F 60.8 °F 83% 29.86 in 5.6 mi North 6.9 mph - N/A Rain Rain Showers
3:50 PM 65 °F 60 °F 81% 29.86 in 4 mi NW 5.8 mph - - Rain Rain
3:50 PM 64.4 °F 60.8 °F 88% 29.86 in 3.7 mi NW 5.8 mph - N/A Rain Rain
4:50 PM 66.2 °F 60.8 °F 83% 29.83 in 6.2 mi NW 10.4 mph - N/A Rain Light Rain
5:50 PM 62.6 °F 59.0 °F 88% 29.86 in 3.1 mi NW 15.0 mph - N/A Rain Heavy Rain
6:50 PM 62.6 °F 59.0 °F 88% 29.86 in 6.2 mi NW 9.2 mph - N/A   Scattered Clouds
7:50 PM 60.8 °F 59.0 °F 94% 29.86 in 4.3 mi NW 11.5 mph - N/A Rain Light Rain
8:50 PM 60.8 °F 57.2 °F 88% 29.86 in 6.2 mi NW 10.4 mph - N/A Rain Light Rain
9:50 PM 58 °F 55 °F 87% 29.88 in 5 mi NW 12.7 mph - - Rain Rain
9:50 PM 59.0 °F 55.4 °F 88% 29.89 in 5.0 mi NW 12.7 mph - N/A Rain Rain
10:50 PM 57.2 °F 55.4 °F 94% 29.89 in 6.2 mi NW 12.7 mph - N/A Rain Rain
11:50 PM 57.2 °F 55.4 °F 94% 29.86 in 6.2 mi NW 13.8 mph - N/A Rain Rain